Time,TemperatureF,DewpointF,PressureIn,WindDirection,WindDirectionDegrees,WindSpeedMPH,WindSpeedGustMPH,Humidity,HourlyPrecipIn,Conditions,Clouds,dailyrainin,SoftwareType,DateUTC
2013-02-14 00:00:00,33.6,32.5,29.80,NW,308,0.0,1.0,96,0.00,,,0.19,meteohub,2013-02-14 05:00:00,
2013-02-14 00:05:00,33.4,32.4,29.80,NW,308,0.0,2.0,96,0.00,,,0.00,meteohub,2013-02-14 05:05:00,
2013-02-14 00:10:00,33.4,32.4,29.80,NW,308,0.0,2.0,96,0.00,,,0.00,meteohub,2013-02-14 05:10:00,
2013-02-14 00:15:00,33.4,32.4,29.81,NW,308,0.0,2.0,96,0.00,,,0.00,meteohub,2013-02-14 05:15:00,
2013-02-14 00:20:00,33.3,32.2,29.81,NW,308,0.0,1.0,96,0.00,,,0.00,meteohub,2013-02-14 05:20:00,
2013-02-14 00:25:00,33.4,32.4,29.81,NW,308,0.0,2.0,96,0.00,,,0.00,meteohub,2013-02-14 05:25:00,
2013-02-14 00:30:00,33.4,32.4,29.81,NNW,336,1.0,4.0,96,0.00,,,0.00,meteohub,2013-02-14 05:30:00,
2013-02-14 00:35:00,33.6,32.5,29.81,WNW,301,2.0,4.0,96,0.00,,,0.00,meteohub,2013-02-14 05:35:00,
2013-02-14 00:40:00,33.6,32.5,29.81,WNW,288,2.0,4.0,96,0.00,,,0.00,meteohub,2013-02-14 05:40:00,
2013-02-14 00:45:00,33.8,32.7,29.82,NW,323,0.0,4.0,96,0.00,,,0.00,meteohub,2013-02-14 05:45:00,
2013-02-14 00:50:00,33.8,32.7,29.82,WNW,302,1.0,4.0,96,0.00,,,0.00,meteohub,2013-02-14 05:50:00,
2013-02-14 00:55:00,33.8,32.7,29.82,NNW,328,0.0,4.0,96,0.00,,,0.00,meteohub,2013-02-14 05:55:00,
2013-02-14 01:00:00,33.8,32.7,29.82,NW,321,0.0,3.0,96,0.00,,,0.00,meteohub,2013-02-14 06:00:00,
2013-02-14 01:05:00,33.8,32.7,29.83,NW,309,1.0,3.0,96,0.00,,,0.00,meteohub,2013-02-14 06:05:00,
2013-02-14 01:10:00,33.8,32.7,29.83,WNW,282,2.0,3.0,96,0.00,,,0.00,meteohub,2013-02-14 06:10:00,
2013-02-14 01:15:00,33.8,32.7,29.84,West,277,0.0,3.0,96,0.00,,,0.00,meteohub,2013-02-14 06:15:00,
2013-02-14 01:20:00,33.8,32.7,29.84,WNW,297,1.0,3.0,96,0.00,,,0.00,meteohub,2013-02-14 06:20:00,
2013-02-14 01:25:00,34.0,32.9,29.84,West,269,0.0,4.0,96,0.00,,,0.00,meteohub,2013-02-14 06:25:00,
2013-02-14 01:30:00,34.0,32.9,29.84,West,269,0.0,4.0,96,0.00,,,0.00,meteohub,2013-02-14 06:30:00,
2013-02-14 01:35:00,34.0,32.9,29.84,West,269,1.0,3.0,96,0.00,,,0.00,meteohub,2013-02-14 06:35:00,
2013-02-14 01:40:00,34.0,32.9,29.85,West,277,0.0,2.0,96,0.00,,,0.00,meteohub,2013-02-14 06:40:00,
2013-02-14 01:45:00,34.0,32.9,29.85,West,277,0.0,2.0,96,0.00,,,0.00,meteohub,2013-02-14 06:45:00,
2013-02-14 01:50:00,34.0,32.9,29.85,West,277,0.0,2.0,96,0.00,,,0.00,meteohub,2013-02-14 06:50:00,
2013-02-14 01:56:00,34.0,32.9,29.85,West,277,2.0,2.0,96,0.00,,,0.00,meteohub,2013-02-14 06:56:00,
2013-02-14 02:01:00,34.0,32.9,29.85,West,261,1.0,2.0,96,0.00,,,0.00,meteohub,2013-02-14 07:01:00,
2013-02-14 02:06:00,34.0,32.9,29.85,WNW,294,0.0,3.0,96,0.00,,,0.00,meteohub,2013-02-14 07:06:00,
2013-02-14 02:11:00,34.0,32.9,29.86,WNW,294,0.0,3.0,96,0.00,,,0.00,meteohub,2013-02-14 07:11:00,
2013-02-14 02:16:00,33.8,32.7,29.86,WNW,294,0.0,3.0,96,0.00,,,0.00,meteohub,2013-02-14 07:16:00,
2013-02-14 02:21:00,33.6,32.5,29.86,WNW,294,0.0,1.0,96,0.00,,,0.00,meteohub,2013-02-14 07:21:00,
2013-02-14 02:26:00,33.4,32.4,29.86,WNW,294,0.0,1.0,96,0.00,,,0.00,meteohub,2013-02-14 07:26:00,
2013-02-14 02:31:00,33.4,32.4,29.86,WNW,294,0.0,2.0,96,0.00,,,0.00,meteohub,2013-02-14 07:31:00,
2013-02-14 02:36:00,33.3,32.2,29.86,WNW,294,0.0,2.0,96,0.00,,,0.00,meteohub,2013-02-14 07:36:00,
2013-02-14 02:41:00,33.3,32.2,29.86,WNW,294,0.0,1.0,96,0.00,,,0.00,meteohub,2013-02-14 07:41:00,
2013-02-14 02:46:00,33.3,32.2,29.86,WNW,294,0.0,2.0,96,0.00,,,0.00,meteohub,2013-02-14 07:46:00,
2013-02-14 02:51:00,33.3,32.2,29.86,WNW,294,2.0,2.0,96,0.00,,,0.00,meteohub,2013-02-14 07:51:00,
2013-02-14 02:56:00,33.1,32.0,29.86,WNW,294,0.0,2.0,96,0.00,,,0.00,meteohub,2013-02-14 07:56:00,
2013-02-14 03:01:00,33.1,32.0,29.86,WNW,294,1.0,2.0,96,0.00,,,0.00,meteohub,2013-02-14 08:01:00,
2013-02-14 03:06:00,33.1,32.0,29.87,WNW,294,1.0,2.0,96,0.00,,,0.00,meteohub,2013-02-14 08:06:00,
2013-02-14 03:11:00,33.1,32.0,29.87,WNW,288,1.0,3.0,96,0.00,,,0.00,meteohub,2013-02-14 08:11:00,
2013-02-14 03:16:00,33.1,32.0,29.87,NW,310,0.0,3.0,96,0.00,,,0.00,meteohub,2013-02-14 08:16:00,
2013-02-14 03:21:00,33.1,32.0,29.87,NW,310,0.0,3.0,96,0.00,,,0.00,meteohub,2013-02-14 08:21:00,
2013-02-14 03:26:00,32.9,31.8,29.87,NW,310,2.0,3.0,96,0.00,,,0.00,meteohub,2013-02-14 08:26:00,
2013-02-14 03:31:00,32.9,31.8,29.87,NW,310,0.0,2.0,96,0.00,,,0.00,meteohub,2013-02-14 08:31:00,
2013-02-14 03:36:00,32.7,31.6,29.88,NW,310,0.0,2.0,96,0.00,,,0.00,meteohub,2013-02-14 08:36:00,
2013-02-14 03:41:00,32.7,31.6,29.88,NW,310,0.0,2.0,96,0.00,,,0.00,meteohub,2013-02-14 08:41:00,
2013-02-14 03:46:00,32.5,31.5,29.88,NW,310,0.0,1.0,96,0.00,,,0.00,meteohub,2013-02-14 08:46:00,
2013-02-14 03:51:00,32.5,31.5,29.89,NW,310,0.0,1.0,96,0.00,,,0.00,meteohub,2013-02-14 08:51:00,
2013-02-14 03:56:00,32.5,31.5,29.89,NW,310,0.0,1.0,96,0.00,,,0.00,meteohub,2013-02-14 08:56:00,
2013-02-14 04:01:00,32.4,31.3,29.89,NW,310,0.0,1.0,96,0.00,,,0.00,meteohub,2013-02-14 09:01:00,
2013-02-14 04:06:00,32.4,31.3,29.90,NW,310,0.0,1.0,96,0.00,,,0.00,meteohub,2013-02-14 09:06:00,
2013-02-14 04:11:00,32.2,31.1,29.90,NW,310,0.0,0.0,96,0.00,,,0.00,meteohub,2013-02-14 09:11:00,
2013-02-14 04:16:00,32.2,31.1,29.91,NW,310,0.0,0.0,96,0.00,,,0.00,meteohub,2013-02-14 09:16:00,
2013-02-14 04:21:00,32.2,31.1,29.91,NW,310,0.0,0.0,96,0.00,,,0.00,meteohub,2013-02-14 09:21:00,
2013-02-14 04:26:00,32.0,30.9,29.91,NW,310,0.0,0.0,96,0.00,,,0.00,meteohub,2013-02-14 09:26:00,
2013-02-14 04:31:00,31.8,30.7,29.91,NW,310,0.0,0.0,96,0.00,,,0.00,meteohub,2013-02-14 09:31:00,
2013-02-14 04:36:00,31.8,30.7,29.91,NW,310,0.0,0.0,96,0.00,,,0.00,meteohub,2013-02-14 09:36:00,
2013-02-14 04:41:00,31.6,30.6,29.92,NW,310,0.0,1.0,96,0.00,,,0.00,meteohub,2013-02-14 09:41:00,
2013-02-14 04:46:00,31.6,30.6,29.92,NW,310,0.0,1.0,96,0.00,,,0.00,meteohub,2013-02-14 09:46:00,
2013-02-14 04:51:00,31.5,30.4,29.92,NW,310,0.0,1.0,96,0.00,,,0.00,meteohub,2013-02-14 09:51:00,
2013-02-14 04:56:00,31.5,30.4,29.92,NW,310,0.0,0.0,96,0.00,,,0.00,meteohub,2013-02-14 09:56:00,
2013-02-14 05:01:00,31.5,30.4,29.93,NW,310,0.0,1.0,96,0.00,,,0.00,meteohub,2013-02-14 10:01:00,
2013-02-14 05:06:00,31.3,30.2,29.93,NW,310,0.0,1.0,96,0.00,,,0.00,meteohub,2013-02-14 10:06:00,
2013-02-14 05:11:00,31.3,30.2,29.94,NW,310,0.0,0.0,96,0.00,,,0.00,meteohub,2013-02-14 10:11:00,
2013-02-14 05:16:00,31.3,30.2,29.94,NW,310,1.0,0.0,96,0.00,,,0.00,meteohub,2013-02-14 10:16:00,
2013-02-14 05:21:00,31.3,30.2,29.94,NW,310,0.0,1.0,96,0.00,,,0.00,meteohub,2013-02-14 10:21:00,
2013-02-14 05:26:00,31.3,30.2,29.94,NW,310,0.0,1.0,96,0.00,,,0.00,meteohub,2013-02-14 10:26:00,
2013-02-14 05:31:00,31.3,30.2,29.94,NW,310,0.0,1.0,96,0.00,,,0.00,meteohub,2013-02-14 10:31:00,
2013-02-14 05:36:00,31.3,30.2,29.95,NW,310,0.0,0.0,96,0.00,,,0.00,meteohub,2013-02-14 10:36:00,
2013-02-14 05:41:00,31.3,30.2,29.95,NW,310,1.0,0.0,96,0.00,,,0.00,meteohub,2013-02-14 10:41:00,
2013-02-14 05:46:00,31.3,30.2,29.94,NW,310,2.0,2.0,96,0.00,,,0.00,meteohub,2013-02-14 10:46:00,
2013-02-14 05:51:00,31.5,30.4,29.95,NW,310,2.0,3.0,96,0.00,,,0.00,meteohub,2013-02-14 10:51:00,
2013-02-14 05:57:00,31.6,30.6,29.95,NW,310,0.0,3.0,96,0.00,,,0.00,meteohub,2013-02-14 10:57:00,
2013-02-14 06:02:00,31.8,30.7,29.95,NW,317,0.0,3.0,96,0.00,,,0.00,meteohub,2013-02-14 11:02:00,
2013-02-14 06:06:00,31.8,30.7,29.95,NW,307,0.0,3.0,96,0.00,,,0.00,meteohub,2013-02-14 11:06:00,
2013-02-14 06:11:00,31.8,30.7,29.95,NNW,329,1.0,3.0,96,0.00,,,0.00,meteohub,2013-02-14 11:11:00,
2013-02-14 06:17:00,31.8,30.7,29.96,NNW,329,0.0,3.0,96,0.00,,,0.00,meteohub,2013-02-14 11:17:00,
2013-02-14 06:22:00,31.8,30.7,29.96,NW,325,0.0,3.0,96,0.00,,,0.00,meteohub,2013-02-14 11:22:00,
2013-02-14 06:27:00,31.8,30.7,29.96,NW,325,0.0,3.0,96,0.00,,,0.00,meteohub,2013-02-14 11:27:00,
2013-02-14 06:32:00,31.6,30.6,29.96,NW,325,0.0,2.0,96,0.00,,,0.00,meteohub,2013-02-14 11:32:00,
2013-02-14 06:37:00,31.6,30.6,29.96,NW,325,0.0,2.0,96,0.00,,,0.00,meteohub,2013-02-14 11:37:00,
2013-02-14 06:42:00,31.5,30.4,29.97,NW,325,1.0,1.0,96,0.00,,,0.00,meteohub,2013-02-14 11:42:00,
2013-02-14 06:47:00,31.5,30.4,29.97,NW,325,0.0,2.0,96,0.00,,,0.00,meteohub,2013-02-14 11:47:00,
2013-02-14 06:52:00,31.3,30.2,29.97,NW,304,0.0,2.0,96,0.00,,,0.00,meteohub,2013-02-14 11:52:00,
2013-02-14 06:57:00,31.1,30.0,29.97,NW,304,0.0,3.0,96,0.00,,,0.00,meteohub,2013-02-14 11:57:00,
2013-02-14 07:02:00,30.9,29.8,29.98,NW,304,0.0,3.0,96,0.00,,,0.00,meteohub,2013-02-14 12:02:00,
2013-02-14 07:07:00,30.7,29.7,29.98,NW,304,0.0,3.0,96,0.00,,,0.00,meteohub,2013-02-14 12:07:00,
2013-02-14 07:12:00,30.7,29.7,29.98,NW,304,0.0,1.0,96,0.00,,,0.00,meteohub,2013-02-14 12:12:00,
2013-02-14 07:17:00,30.7,29.7,29.99,NW,304,0.0,2.0,96,0.00,,,0.00,meteohub,2013-02-14 12:17:00,
2013-02-14 07:22:00,30.7,29.7,29.99,NW,304,2.0,2.0,96,0.00,,,0.00,meteohub,2013-02-14 12:22:00,
2013-02-14 07:27:00,30.9,29.8,29.99,NW,314,1.0,2.0,96,0.00,,,0.00,meteohub,2013-02-14 12:27:00,
2013-02-14 07:32:00,30.9,29.8,29.99,NW,314,1.0,4.0,96,0.00,,,0.00,meteohub,2013-02-14 12:32:00,
2013-02-14 07:37:00,31.1,30.0,29.99,NW,314,1.0,4.0,96,0.00,,,0.00,meteohub,2013-02-14 12:37:00,
2013-02-14 07:42:00,31.3,30.2,29.99,NW,314,0.0,4.0,96,0.00,,,0.00,meteohub,2013-02-14 12:42:00,
2013-02-14 07:47:00,31.3,30.2,29.99,NW,314,0.0,3.0,96,0.00,,,0.00,meteohub,2013-02-14 12:47:00,
2013-02-14 07:52:00,31.3,30.2,29.99,NW,314,0.0,3.0,96,0.00,,,0.00,meteohub,2013-02-14 12:52:00,
2013-02-14 07:57:00,31.3,30.2,29.99,NW,314,0.0,1.0,96,0.00,,,0.00,meteohub,2013-02-14 12:57:00,
2013-02-14 08:02:00,31.3,30.2,29.99,NW,314,0.0,2.0,96,0.00,,,0.00,meteohub,2013-02-14 13:02:00,
2013-02-14 08:07:00,31.3,30.2,30.00,NW,314,0.0,2.0,96,0.00,,,0.00,meteohub,2013-02-14 13:07:00,
2013-02-14 08:12:00,31.5,30.4,30.01,NNW,348,2.0,2.0,96,0.00,,,0.00,meteohub,2013-02-14 13:12:00,
2013-02-14 08:17:00,32.2,31.5,30.01,NNW,348,0.0,3.0,97,0.00,,,0.00,meteohub,2013-02-14 13:17:00,
2013-02-14 08:22:00,32.7,32.0,30.01,NW,307,3.0,3.0,97,0.00,,,0.00,meteohub,2013-02-14 13:22:00,
2013-02-14 08:27:00,33.3,32.5,30.01,West,280,0.0,4.0,97,0.00,,,0.00,meteohub,2013-02-14 13:27:00,
2013-02-14 08:32:00,34.0,33.3,30.01,WSW,258,0.0,4.0,97,0.00,,,0.00,meteohub,2013-02-14 13:32:00,
2013-02-14 08:37:00,34.5,33.8,30.02,NW,325,2.0,4.0,97,0.00,,,0.00,meteohub,2013-02-14 13:37:00,
2013-02-14 08:41:00,34.7,34.0,30.02,NNW,327,3.0,4.0,97,0.00,,,0.00,meteohub,2013-02-14 13:41:00,
2013-02-14 08:47:00,34.9,34.2,30.02,NNW,336,1.0,4.0,97,0.00,,,0.00,meteohub,2013-02-14 13:47:00,
2013-02-14 08:52:00,35.2,34.5,30.03,West,276,3.0,4.0,97,0.00,,,0.00,meteohub,2013-02-14 13:52:00,
2013-02-14 08:57:00,35.8,34.7,30.03,WSW,245,3.0,4.0,96,0.01,,,0.01,meteohub,2013-02-14 13:57:00,
2013-02-14 09:02:00,36.1,34.5,30.03,NW,325,0.0,4.0,94,0.03,,,0.03,meteohub,2013-02-14 14:02:00,
2013-02-14 09:07:00,36.3,34.2,30.03,NW,311,2.0,4.0,92,0.03,,,0.03,meteohub,2013-02-14 14:07:00,
2013-02-14 09:12:00,36.9,34.2,30.04,West,277,3.0,4.0,90,0.04,,,0.04,meteohub,2013-02-14 14:12:00,
2013-02-14 09:17:00,37.0,34.2,30.04,West,259,1.0,4.0,89,0.04,,,0.04,meteohub,2013-02-14 14:17:00,
2013-02-14 09:22:00,37.4,33.6,30.04,NW,314,1.0,4.0,86,0.04,,,0.04,meteohub,2013-02-14 14:22:00,
2013-02-14 09:27:00,37.6,33.4,30.04,NW,313,2.0,5.0,85,0.04,,,0.04,meteohub,2013-02-14 14:27:00,
2013-02-14 09:32:00,37.8,33.4,30.04,WNW,288,2.0,5.0,84,0.04,,,0.04,meteohub,2013-02-14 14:32:00,
2013-02-14 09:37:00,38.1,33.1,30.04,WNW,301,3.0,5.0,82,0.04,,,0.04,meteohub,2013-02-14 14:37:00,
2013-02-14 09:42:00,38.5,34.2,30.04,NW,311,1.0,5.0,84,0.04,,,0.04,meteohub,2013-02-14 14:42:00,
2013-02-14 09:47:00,38.7,33.6,30.04,NW,309,2.0,5.0,82,0.04,,,0.04,meteohub,2013-02-14 14:47:00,
2013-02-14 09:52:00,38.8,33.8,30.04,WNW,298,4.0,4.0,82,0.03,,,0.04,meteohub,2013-02-14 14:52:00,
2013-02-14 09:57:00,39.2,33.3,30.04,NW,320,4.0,7.0,79,0.02,,,0.04,meteohub,2013-02-14 14:57:00,
2013-02-14 10:02:00,39.4,33.8,30.04,West,274,2.0,7.0,80,0.01,,,0.04,meteohub,2013-02-14 15:02:00,
2013-02-14 10:07:00,39.7,34.2,30.04,NW,319,4.0,7.0,80,0.01,,,0.04,meteohub,2013-02-14 15:07:00,
2013-02-14 10:12:00,39.7,33.1,30.04,NW,308,2.0,7.0,77,0.00,,,0.04,meteohub,2013-02-14 15:12:00,
2013-02-14 10:17:00,39.9,33.6,30.04,West,273,2.0,8.0,78,0.00,,,0.04,meteohub,2013-02-14 15:17:00,
2013-02-14 10:22:00,40.3,34.0,30.04,NW,323,3.0,8.0,78,0.00,,,0.04,meteohub,2013-02-14 15:22:00,
2013-02-14 10:27:00,40.6,34.3,30.04,NW,304,3.0,8.0,78,0.00,,,0.04,meteohub,2013-02-14 15:27:00,
2013-02-14 10:32:00,40.8,33.4,30.04,NW,322,3.0,5.0,75,0.00,,,0.04,meteohub,2013-02-14 15:32:00,
2013-02-14 10:37:00,41.2,34.2,30.05,WNW,297,1.0,5.0,76,0.00,,,0.04,meteohub,2013-02-14 15:37:00,
2013-02-14 10:42:00,41.7,34.3,30.04,WSW,257,4.0,5.0,75,0.00,,,0.04,meteohub,2013-02-14 15:42:00,
2013-02-14 10:47:00,42.3,34.5,30.05,WNW,302,3.0,4.0,74,0.00,,,0.04,meteohub,2013-02-14 15:47:00,
2013-02-14 10:52:00,42.4,33.4,30.04,NW,305,2.0,5.0,70,0.00,,,0.04,meteohub,2013-02-14 15:52:00,
2013-02-14 10:57:00,42.3,32.9,30.04,NW,306,2.0,6.0,69,0.00,,,0.04,meteohub,2013-02-14 15:57:00,
2013-02-14 11:02:00,41.9,32.2,30.04,NNW,343,2.0,7.0,68,0.00,,,0.04,meteohub,2013-02-14 16:02:00,
2013-02-14 11:07:00,42.1,32.7,30.04,NW,325,3.0,8.0,69,0.00,,,0.04,meteohub,2013-02-14 16:07:00,
2013-02-14 11:12:00,42.3,32.2,30.04,West,262,2.0,8.0,67,0.00,,,0.04,meteohub,2013-02-14 16:12:00,
2013-02-14 11:17:00,42.4,33.1,30.04,NW,320,3.0,8.0,69,0.00,,,0.04,meteohub,2013-02-14 16:17:00,
2013-02-14 11:22:00,42.6,31.6,30.04,NW,320,2.0,8.0,65,0.00,,,0.04,meteohub,2013-02-14 16:22:00,
2013-02-14 11:27:00,43.0,32.7,30.03,NNW,342,2.0,5.0,67,0.00,,,0.04,meteohub,2013-02-14 16:27:00,
2013-02-14 11:32:00,43.2,32.2,30.03,NNW,332,1.0,4.0,65,0.00,,,0.04,meteohub,2013-02-14 16:32:00,
2013-02-14 11:37:00,43.7,33.4,30.03,SW,221,0.0,4.0,67,0.00,,,0.04,meteohub,2013-02-14 16:37:00,
2013-02-14 11:42:00,44.1,32.4,30.03,NW,316,0.0,3.0,63,0.00,,,0.04,meteohub,2013-02-14 16:42:00,
2013-02-14 11:47:00,44.2,31.3,30.04,West,269,1.0,5.0,60,0.00,,,0.04,meteohub,2013-02-14 16:47:00,
2013-02-14 11:52:00,44.8,32.9,30.04,NW,323,1.0,5.0,63,0.00,,,0.04,meteohub,2013-02-14 16:52:00,
2013-02-14 11:57:00,44.8,31.8,30.04,NW,324,1.0,4.0,60,0.00,,,0.04,meteohub,2013-02-14 16:57:00,
2013-02-14 12:02:00,44.2,30.7,30.03,NW,324,0.0,7.0,59,0.00,,,0.04,meteohub,2013-02-14 17:02:00,
2013-02-14 12:07:00,44.4,33.4,30.03,NW,321,0.0,7.0,65,0.00,,,0.04,meteohub,2013-02-14 17:07:00,
2013-02-14 12:12:00,45.5,32.9,30.03,WSW,247,1.0,7.0,61,0.00,,,0.04,meteohub,2013-02-14 17:12:00,
2013-02-14 12:17:00,45.7,32.5,30.03,NW,316,2.0,5.0,60,0.00,,,0.04,meteohub,2013-02-14 17:17:00,
2013-02-14 12:22:00,45.7,32.2,30.03,NW,316,2.0,5.0,59,0.00,,,0.04,meteohub,2013-02-14 17:22:00,
2013-02-14 12:27:00,45.9,33.3,30.04,WNW,301,2.0,5.0,61,0.00,,,0.04,meteohub,2013-02-14 17:27:00,
2013-02-14 12:32:00,46.0,32.0,30.04,NW,315,0.0,5.0,58,0.00,,,0.04,meteohub,2013-02-14 17:32:00,
2013-02-14 12:37:00,46.0,32.5,30.03,NW,308,3.0,5.0,59,0.00,,,0.04,meteohub,2013-02-14 17:37:00,
2013-02-14 12:42:00,46.4,32.0,30.03,WNW,294,4.0,4.0,57,0.00,,,0.04,meteohub,2013-02-14 17:42:00,
2013-02-14 12:47:00,46.6,33.1,30.03,WNW,293,0.0,6.0,59,0.00,,,0.04,meteohub,2013-02-14 17:47:00,
2013-02-14 12:52:00,46.8,31.8,30.02,NNW,329,3.0,6.0,56,0.00,,,0.04,meteohub,2013-02-14 17:52:00,
2013-02-14 12:57:00,47.1,33.1,30.02,NNW,342,2.0,6.0,58,0.00,,,0.04,meteohub,2013-02-14 17:57:00,
2013-02-14 13:02:00,47.3,32.9,30.02,NNW,333,3.0,5.0,57,0.00,,,0.04,meteohub,2013-02-14 18:02:00,
2013-02-14 13:07:00,46.9,32.0,30.02,West,265,3.0,5.0,56,0.00,,,0.04,meteohub,2013-02-14 18:07:00,
2013-02-14 13:12:00,46.9,32.9,30.01,WSW,238,2.0,4.0,58,0.00,,,0.04,meteohub,2013-02-14 18:12:00,
2013-02-14 13:17:00,47.7,33.6,30.01,SE,146,0.0,4.0,58,0.00,,,0.04,meteohub,2013-02-14 18:17:00,
2013-02-14 13:22:00,48.6,32.2,30.02,NW,314,2.0,4.0,53,0.00,,,0.04,meteohub,2013-02-14 18:22:00,
2013-02-14 13:27:00,48.7,31.8,30.01,West,278,2.0,5.0,52,0.00,,,0.04,meteohub,2013-02-14 18:27:00,
2013-02-14 13:32:00,48.9,32.0,30.01,WNW,292,2.0,5.0,52,0.00,,,0.04,meteohub,2013-02-14 18:32:00,
2013-02-14 13:37:00,49.3,32.4,30.01,NW,316,2.0,5.0,52,0.00,,,0.04,meteohub,2013-02-14 18:37:00,
2013-02-14 13:42:00,48.9,32.0,30.01,NW,309,2.0,5.0,52,0.00,,,0.04,meteohub,2013-02-14 18:42:00,
2013-02-14 13:47:00,48.4,30.0,30.00,WSW,246,0.0,5.0,49,0.00,,,0.04,meteohub,2013-02-14 18:47:00,
2013-02-14 13:52:00,48.0,30.7,30.00,NNW,330,1.0,4.0,51,0.00,,,0.04,meteohub,2013-02-14 18:52:00,
2013-02-14 13:57:00,48.2,31.8,30.00,NNW,346,4.0,6.0,53,0.00,,,0.04,meteohub,2013-02-14 18:57:00,
2013-02-14 14:02:00,48.0,31.6,30.00,NE,50,3.0,6.0,53,0.00,,,0.04,meteohub,2013-02-14 19:02:00,
2013-02-14 14:07:00,48.4,30.6,30.00,NW,310,0.0,6.0,50,0.00,,,0.04,meteohub,2013-02-14 19:07:00,
2013-02-14 14:12:00,48.4,30.6,30.00,NW,325,1.0,6.0,50,0.00,,,0.04,meteohub,2013-02-14 19:12:00,
2013-02-14 14:17:00,48.4,31.1,30.00,West,281,2.0,6.0,51,0.00,,,0.04,meteohub,2013-02-14 19:17:00,
2013-02-14 14:22:00,48.7,31.8,30.00,NNW,333,0.0,6.0,52,0.00,,,0.04,meteohub,2013-02-14 19:22:00,
2013-02-14 14:27:00,49.3,32.9,30.00,NNE,14,0.0,6.0,53,0.00,,,0.04,meteohub,2013-02-14 19:27:00,
2013-02-14 14:32:00,49.5,31.6,29.99,SSW,202,1.0,4.0,50,0.00,,,0.04,meteohub,2013-02-14 19:32:00,
2013-02-14 14:37:00,49.6,30.2,29.99,NNW,333,4.0,4.0,47,0.00,,,0.04,meteohub,2013-02-14 19:37:00,
2013-02-14 14:42:00,49.5,30.6,29.99,West,281,1.0,5.0,48,0.00,,,0.04,meteohub,2013-02-14 19:42:00,
2013-02-14 14:47:00,49.6,30.7,29.99,South,180,0.0,5.0,48,0.00,,,0.04,meteohub,2013-02-14 19:47:00,
2013-02-14 14:52:00,50.0,29.5,30.00,West,262,1.0,5.0,45,0.00,,,0.04,meteohub,2013-02-14 19:52:00,
2013-02-14 14:57:00,49.6,28.6,30.00,West,277,3.0,3.0,44,0.00,,,0.04,meteohub,2013-02-14 19:57:00,
2013-02-14 15:02:00,49.3,29.3,30.00,West,269,0.0,4.0,46,0.00,,,0.04,meteohub,2013-02-14 20:02:00,
2013-02-14 15:07:00,49.3,28.2,30.00,SSE,157,1.0,4.0,44,0.00,,,0.04,meteohub,2013-02-14 20:07:00,
2013-02-14 15:12:00,49.5,29.5,30.00,NW,312,4.0,4.0,46,0.00,,,0.04,meteohub,2013-02-14 20:12:00,
2013-02-14 15:17:00,49.3,29.3,30.01,WNW,294,0.0,4.0,46,0.00,,,0.04,meteohub,2013-02-14 20:17:00,
2013-02-14 15:22:00,49.5,29.5,30.00,West,280,0.0,4.0,46,0.00,,,0.04,meteohub,2013-02-14 20:22:00,
2013-02-14 15:27:00,49.3,29.8,30.00,NNE,30,1.0,4.0,47,0.00,,,0.04,meteohub,2013-02-14 20:27:00,
2013-02-14 15:32:00,49.1,29.1,30.01,WNW,296,0.0,3.0,46,0.00,,,0.04,meteohub,2013-02-14 20:32:00,
2013-02-14 15:36:00,48.7,29.8,30.00,WNW,284,1.0,3.0,48,0.00,,,0.04,meteohub,2013-02-14 20:36:00,
2013-02-14 15:42:00,48.6,29.8,30.00,WNW,300,0.0,4.0,48,0.00,,,0.04,meteohub,2013-02-14 20:42:00,
2013-02-14 15:46:00,48.2,29.5,30.00,West,263,0.0,4.0,48,0.00,,,0.04,meteohub,2013-02-14 20:46:00,
2013-02-14 15:52:00,48.0,29.8,30.00,West,263,0.0,2.0,49,0.00,,,0.04,meteohub,2013-02-14 20:52:00,
2013-02-14 15:56:00,47.7,28.9,29.99,West,275,1.0,3.0,48,0.00,,,0.04,meteohub,2013-02-14 20:56:00,
2013-02-14 16:02:00,47.3,29.1,29.99,NW,311,3.0,4.0,49,0.00,,,0.04,meteohub,2013-02-14 21:02:00,
2013-02-14 16:07:00,47.1,29.5,29.99,North,9,0.0,4.0,50,0.00,,,0.04,meteohub,2013-02-14 21:07:00,
2013-02-14 16:12:00,46.9,29.8,29.99,NW,319,1.0,4.0,51,0.00,,,0.04,meteohub,2013-02-14 21:12:00,
2013-02-14 16:17:00,46.9,29.8,29.99,SSE,167,3.0,4.0,51,0.00,,,0.04,meteohub,2013-02-14 21:17:00,
2013-02-14 16:22:00,46.9,29.8,29.99,East,89,0.0,3.0,51,0.00,,,0.04,meteohub,2013-02-14 21:22:00,
2013-02-14 16:27:00,46.9,29.8,29.99,South,171,1.0,3.0,51,0.00,,,0.04,meteohub,2013-02-14 21:27:00,
2013-02-14 16:32:00,46.8,29.7,29.99,South,171,0.0,3.0,51,0.00,,,0.04,meteohub,2013-02-14 21:32:00,
2013-02-14 16:37:00,46.8,29.7,29.99,South,171,0.0,2.0,51,0.00,,,0.04,meteohub,2013-02-14 21:37:00,
2013-02-14 16:42:00,46.8,30.0,29.99,South,171,0.0,2.0,52,0.00,,,0.04,meteohub,2013-02-14 21:42:00,
2013-02-14 16:47:00,46.4,29.3,29.99,West,275,1.0,1.0,51,0.00,,,0.04,meteohub,2013-02-14 21:47:00,
2013-02-14 16:52:00,46.2,29.1,29.99,West,275,0.0,3.0,51,0.00,,,0.04,meteohub,2013-02-14 21:52:00,
2013-02-14 16:57:00,46.2,29.1,30.00,West,275,0.0,3.0,51,0.00,,,0.04,meteohub,2013-02-14 21:57:00,
2013-02-14 17:02:00,46.0,28.9,30.00,West,275,0.0,3.0,51,0.00,,,0.04,meteohub,2013-02-14 22:02:00,
2013-02-14 17:07:00,46.0,28.9,30.00,West,275,0.0,2.0,51,0.00,,,0.04,meteohub,2013-02-14 22:07:00,
2013-02-14 17:12:00,45.9,30.2,30.01,West,275,0.0,1.0,54,0.00,,,0.04,meteohub,2013-02-14 22:12:00,
2013-02-14 17:17:00,45.7,30.0,30.01,West,275,0.0,1.0,54,0.00,,,0.04,meteohub,2013-02-14 22:17:00,
2013-02-14 17:22:00,45.5,29.3,30.01,West,275,0.0,0.0,53,0.00,,,0.04,meteohub,2013-02-14 22:22:00,
2013-02-14 17:27:00,45.0,30.6,30.00,West,275,1.0,1.0,57,0.00,,,0.04,meteohub,2013-02-14 22:27:00,
2013-02-14 17:32:00,44.8,30.9,30.00,West,275,1.0,1.0,58,0.00,,,0.04,meteohub,2013-02-14 22:32:00,
2013-02-14 17:37:00,44.4,30.9,30.00,West,275,0.0,1.0,59,0.00,,,0.04,meteohub,2013-02-14 22:37:00,
2013-02-14 17:42:00,44.1,31.5,30.00,West,275,0.0,2.0,61,0.00,,,0.04,meteohub,2013-02-14 22:42:00,
2013-02-14 17:47:00,43.5,30.9,30.00,West,275,0.0,2.0,61,0.00,,,0.04,meteohub,2013-02-14 22:47:00,
2013-02-14 17:52:00,43.3,31.6,30.01,West,275,0.0,2.0,63,0.00,,,0.04,meteohub,2013-02-14 22:52:00,
2013-02-14 17:57:00,43.0,31.3,30.01,West,275,0.0,1.0,63,0.00,,,0.04,meteohub,2013-02-14 22:57:00,
2013-02-14 18:02:00,42.3,31.3,30.01,West,275,0.0,0.0,65,0.00,,,0.04,meteohub,2013-02-14 23:02:00,
2013-02-14 18:07:00,41.7,31.3,30.01,West,275,0.0,1.0,66,0.00,,,0.04,meteohub,2013-02-14 23:07:00,
2013-02-14 18:12:00,41.5,31.5,30.01,West,275,0.0,1.0,67,0.00,,,0.04,meteohub,2013-02-14 23:12:00,
2013-02-14 18:17:00,41.2,31.5,30.01,West,275,0.0,1.0,68,0.00,,,0.04,meteohub,2013-02-14 23:17:00,
2013-02-14 18:22:00,40.8,31.1,30.01,West,275,0.0,1.0,68,0.00,,,0.04,meteohub,2013-02-14 23:22:00,
2013-02-14 18:27:00,40.6,30.9,30.01,West,275,1.0,1.0,68,0.00,,,0.04,meteohub,2013-02-14 23:27:00,
2013-02-14 18:32:00,40.5,30.7,30.02,West,275,0.0,1.0,68,0.00,,,0.04,meteohub,2013-02-14 23:32:00,
2013-02-14 18:37:00,40.3,30.9,30.02,West,275,0.0,1.0,69,0.00,,,0.04,meteohub,2013-02-14 23:37:00,
2013-02-14 18:42:00,39.9,30.6,30.02,West,275,1.0,1.0,69,0.00,,,0.04,meteohub,2013-02-14 23:42:00,
2013-02-14 18:47:00,39.7,30.7,30.01,SSE,155,0.0,2.0,70,0.00,,,0.04,meteohub,2013-02-14 23:47:00,
2013-02-14 18:52:00,39.6,30.6,30.01,SSE,155,0.0,2.0,70,0.00,,,0.04,meteohub,2013-02-14 23:52:00,
2013-02-14 18:57:00,39.4,30.4,30.02,SSE,155,0.0,2.0,70,0.00,,,0.04,meteohub,2013-02-14 23:57:00,
2013-02-14 19:02:00,39.4,30.4,30.02,SSE,155,0.0,1.0,70,0.00,,,0.04,meteohub,2013-02-15 00:02:00,
2013-02-14 19:07:00,39.0,30.0,30.02,SSE,155,0.0,1.0,70,0.00,,,0.04,meteohub,2013-02-15 00:07:00,
2013-02-14 19:12:00,38.8,30.2,30.02,SSE,155,0.0,0.0,71,0.00,,,0.04,meteohub,2013-02-15 00:12:00,
2013-02-14 19:17:00,38.7,30.4,30.02,SSE,155,0.0,1.0,72,0.00,,,0.04,meteohub,2013-02-15 00:17:00,
2013-02-14 19:22:00,38.5,30.2,30.01,SSE,155,0.0,1.0,72,0.00,,,0.04,meteohub,2013-02-15 00:22:00,
2013-02-14 19:27:00,38.1,29.8,30.02,SSE,155,0.0,1.0,72,0.00,,,0.04,meteohub,2013-02-15 00:27:00,
2013-02-14 19:32:00,38.1,29.8,30.02,SSE,155,0.0,0.0,72,0.00,,,0.04,meteohub,2013-02-15 00:32:00,
2013-02-14 19:37:00,37.9,29.7,30.02,SSE,155,0.0,0.0,72,0.00,,,0.04,meteohub,2013-02-15 00:37:00,
2013-02-14 19:42:00,37.8,29.8,30.02,SSE,155,0.0,0.0,73,0.00,,,0.04,meteohub,2013-02-15 00:42:00,
2013-02-14 19:47:00,37.6,30.0,30.03,SSE,155,0.0,0.0,74,0.00,,,0.04,meteohub,2013-02-15 00:47:00,
2013-02-14 19:52:00,37.4,29.8,30.02,SSE,155,0.0,0.0,74,0.00,,,0.04,meteohub,2013-02-15 00:52:00,
2013-02-14 19:57:00,37.2,29.7,30.02,SSE,155,0.0,0.0,74,0.00,,,0.04,meteohub,2013-02-15 00:57:00,
2013-02-14 20:02:00,37.0,29.5,30.02,SSE,155,0.0,0.0,74,0.00,,,0.04,meteohub,2013-02-15 01:02:00,
2013-02-14 20:07:00,37.0,29.5,30.03,SSE,155,0.0,0.0,74,0.00,,,0.04,meteohub,2013-02-15 01:07:00,
2013-02-14 20:12:00,36.9,30.0,30.02,SSE,155,0.0,0.0,76,0.00,,,0.04,meteohub,2013-02-15 01:12:00,
2013-02-14 20:17:00,36.7,29.8,30.03,SSE,155,0.0,0.0,76,0.00,,,0.04,meteohub,2013-02-15 01:17:00,
2013-02-14 20:22:00,36.7,29.8,30.03,SSE,155,0.0,0.0,76,0.00,,,0.04,meteohub,2013-02-15 01:22:00,
2013-02-14 20:27:00,36.5,30.0,30.03,SSE,155,0.0,0.0,77,0.00,,,0.04,meteohub,2013-02-15 01:27:00,
2013-02-14 20:32:00,36.3,29.8,30.03,SSE,155,0.0,0.0,77,0.00,,,0.04,meteohub,2013-02-15 01:32:00,
2013-02-14 20:37:00,36.1,29.7,30.03,SSE,155,0.0,0.0,77,0.00,,,0.04,meteohub,2013-02-15 01:37:00,
2013-02-14 20:42:00,36.1,29.7,30.03,SSE,155,0.0,0.0,77,0.00,,,0.04,meteohub,2013-02-15 01:42:00,
2013-02-14 20:47:00,36.0,29.5,30.03,SSE,155,0.0,0.0,77,0.00,,,0.04,meteohub,2013-02-15 01:47:00,
2013-02-14 20:52:00,36.0,29.8,30.03,SSE,155,0.0,0.0,78,0.00,,,0.04,meteohub,2013-02-15 01:52:00,
2013-02-14 20:57:00,36.0,29.8,30.02,SSE,155,0.0,0.0,78,0.00,,,0.04,meteohub,2013-02-15 01:57:00,
2013-02-14 21:02:00,35.8,29.7,30.02,SSE,155,0.0,0.0,78,0.00,,,0.04,meteohub,2013-02-15 02:02:00,
2013-02-14 21:07:00,35.8,29.7,30.02,SSE,155,0.0,1.0,78,0.00,,,0.04,meteohub,2013-02-15 02:07:00,
2013-02-14 21:12:00,35.8,29.7,30.02,SSE,155,0.0,1.0,78,0.00,,,0.04,meteohub,2013-02-15 02:12:00,
2013-02-14 21:17:00,35.8,29.7,30.02,SSE,155,0.0,1.0,78,0.00,,,0.04,meteohub,2013-02-15 02:17:00,
2013-02-14 21:22:00,35.6,29.5,30.02,SSE,155,0.0,1.0,78,0.00,,,0.04,meteohub,2013-02-15 02:22:00,
2013-02-14 21:27:00,35.4,29.3,30.02,SSE,155,0.0,1.0,78,0.00,,,0.04,meteohub,2013-02-15 02:27:00,
2013-02-14 21:32:00,35.4,29.3,30.02,SSE,155,0.0,1.0,78,0.00,,,0.04,meteohub,2013-02-15 02:32:00,
2013-02-14 21:37:00,35.4,29.3,30.03,SSE,155,0.0,1.0,78,0.00,,,0.04,meteohub,2013-02-15 02:37:00,
2013-02-14 21:42:00,35.2,29.3,30.03,SSE,155,0.0,0.0,79,0.00,,,0.04,meteohub,2013-02-15 02:42:00,
2013-02-14 21:47:00,35.2,29.3,30.03,SSE,155,0.0,0.0,79,0.00,,,0.04,meteohub,2013-02-15 02:47:00,
2013-02-14 21:52:00,35.2,29.7,30.02,NE,40,0.0,0.0,80,0.00,,,0.04,meteohub,2013-02-15 02:52:00,
2013-02-14 21:57:00,35.1,29.5,30.02,NE,40,0.0,2.0,80,0.00,,,0.04,meteohub,2013-02-15 02:57:00,
2013-02-14 22:02:00,35.1,29.5,30.03,NE,40,0.0,2.0,80,0.00,,,0.04,meteohub,2013-02-15 03:02:00,
2013-02-14 22:07:00,35.2,29.3,30.03,SE,142,0.0,2.0,79,0.00,,,0.04,meteohub,2013-02-15 03:07:00,
2013-02-14 22:12:00,35.2,29.3,30.03,SE,142,0.0,3.0,79,0.00,,,0.04,meteohub,2013-02-15 03:12:00,
2013-02-14 22:17:00,35.2,28.8,30.03,South,173,0.0,3.0,77,0.00,,,0.04,meteohub,2013-02-15 03:17:00,
2013-02-14 22:22:00,35.2,28.8,30.03,South,173,0.0,2.0,77,0.00,,,0.04,meteohub,2013-02-15 03:22:00,
2013-02-14 22:27:00,35.4,28.9,30.03,South,173,0.0,2.0,77,0.00,,,0.04,meteohub,2013-02-15 03:27:00,
2013-02-14 22:32:00,35.4,28.9,30.02,South,173,0.0,1.0,77,0.00,,,0.04,meteohub,2013-02-15 03:32:00,
2013-02-14 22:37:00,35.6,29.1,30.02,South,173,0.0,1.0,77,0.00,,,0.04,meteohub,2013-02-15 03:37:00,
2013-02-14 22:42:00,35.6,29.1,30.02,South,173,0.0,1.0,77,0.00,,,0.04,meteohub,2013-02-15 03:42:00,
2013-02-14 22:47:00,35.4,28.9,30.02,South,173,0.0,1.0,77,0.00,,,0.04,meteohub,2013-02-15 03:47:00,
2013-02-14 22:52:00,35.4,28.9,30.02,South,173,0.0,1.0,77,0.00,,,0.04,meteohub,2013-02-15 03:52:00,
2013-02-14 22:57:00,35.4,29.3,30.02,South,173,0.0,1.0,78,0.00,,,0.04,meteohub,2013-02-15 03:57:00,
2013-02-14 23:02:00,35.2,29.1,30.03,South,173,0.0,1.0,78,0.00,,,0.04,meteohub,2013-02-15 04:02:00,
2013-02-14 23:07:00,35.1,29.1,30.03,South,173,0.0,1.0,79,0.00,,,0.04,meteohub,2013-02-15 04:07:00,
2013-02-14 23:12:00,35.1,29.5,30.03,South,173,0.0,1.0,80,0.00,,,0.04,meteohub,2013-02-15 04:12:00,
2013-02-14 23:17:00,34.9,29.3,30.03,South,173,0.0,1.0,80,0.00,,,0.04,meteohub,2013-02-15 04:17:00,
2013-02-14 23:22:00,34.9,29.7,30.03,SSW,192,0.0,2.0,81,0.00,,,0.04,meteohub,2013-02-15 04:22:00,
2013-02-14 23:28:00,34.9,30.0,30.03,South,186,0.0,2.0,82,0.00,,,0.04,meteohub,2013-02-15 04:28:00,
2013-02-14 23:33:00,35.1,30.2,30.03,South,186,0.0,3.0,82,0.00,,,0.04,meteohub,2013-02-15 04:33:00,
2013-02-14 23:38:00,35.1,30.4,30.04,SW,215,0.0,3.0,83,0.00,,,0.04,meteohub,2013-02-15 04:38:00,
2013-02-14 23:43:00,35.2,30.6,30.04,South,180,0.0,2.0,83,0.00,,,0.04,meteohub,2013-02-15 04:43:00,
2013-02-14 23:48:00,35.4,30.7,30.03,South,172,0.0,2.0,83,0.00,,,0.04,meteohub,2013-02-15 04:48:00,
2013-02-14 23:53:00,35.6,30.9,30.03,South,172,0.0,4.0,83,0.00,,,0.04,meteohub,2013-02-15 04:53:00,
2013-02-14 23:58:00,35.8,31.1,30.03,SW,216,0.0,4.0,83,0.00,,,0.04,meteohub,2013-02-15 04:58:00,